User: anonymous   Login
Location: Unspecified
(0.0000°N, 0.0000°E)
Time: 09:23:30
(UTC+00:00)
Language:

APRIZESAT 10 - Orbit

View from above orbital plane
View from above orbital plane
View from above satellite
View from above satellite

Ground track
Ground track

The orbit data is extracted from the following two-line orbital elements,

1 40019U 14033K   18023.66629718  .00000047  00000-0  16544-4 0  9999
2 40019  97.8051 250.4444 0083974 342.8964  16.9414 14.66920144192538
Epoch (UTC): 23 January 2018 15:59:28
Eccentricity: 0.0083974
inclination: 97.8051°
perigee height: 612 km
apogee height: 730 km
right ascension of ascending node: 250.4444°
argument of perigee: 342.8964°
revolutions per day: 14.66920144
mean anomaly at epoch: 16.9414°
orbit number at epoch: 19253

The dashed part of the orbit path shows where the satellite is in the earth's shadow,  

DLR